Date String (YYYY-MM-DD hh:mm:ss) UTC,Instrument flags,absolute air pressure of the measurement (hPa),sample flow rate (lpm),inlet stack bypass flow (lpm),air temperature of the measurement (°C),ambient temperature measured by the external sensor (°C),aerosol sample conditioner tube jacket temperature (°C),OPC LED temperature (°C),internal box temperature (°C),relative humidity of the measurement (%),span deviation,mass concentration of particles derived from Lorenz-Mie calculation of OPC scattering (μg/m³),mass concentration of particles derived from Lorenz-Mie calculation of OPC scattering (μg/m³),mass concentration of particles derived from Lorenz-Mie calculation of OPC scattering (μg/m³)
DateTimeUTC,F1_M11,P_M11,Q1_M11,Q2_M11,T1_M11,T2_M11,T3_M11,T4_M11,T5_M11,U1_M11,ZSPAN_M11,X2_M11,X0_M11,X1_M11
2023-09-10 05:00:00,SystemResetWarning,0837.6,5.00,000.00,028.0,026.7,000.0,036.3,029.6,29.3,0001.5,0016.03,0033.82,0013.37
2023-09-10 05:01:00,SystemResetWarning,0837.7,5.00,000.00,028.0,026.9,000.0,036.4,029.7,29.2,0001.5,0015.99,0034.93,0013.35
2023-09-10 05:02:00,SystemResetWarning,0837.6,4.99,000.00,028.1,027.0,000.0,036.4,029.8,29.2,0001.5,0015.96,0034.81,0013.35
2023-09-10 05:03:00,SystemResetWarning,0837.6,5.00,000.00,028.1,027.1,000.0,036.4,029.8,29.3,0001.5,0015.96,0035.42,0013.38
2023-09-10 05:04:00,SystemResetWarning,0837.6,5.00,000.00,028.2,027.3,000.0,036.4,029.9,29.2,0001.4,0016.02,0036.51,0013.39
2023-09-10 05:05:00,SystemResetWarning,0837.6,4.99,000.00,028.2,027.4,000.0,036.5,029.9,29.1,0001.5,0015.99,0036.17,0013.40
2023-09-10 05:06:00,SystemResetWarning,0837.6,5.00,000.00,028.2,027.3,000.0,036.5,030.0,29.1,0001.6,0015.94,0036.46,0013.38
2023-09-10 05:07:00,SystemResetWarning,0837.6,5.01,000.00,028.2,025.8,000.0,036.4,029.8,29.2,0001.6,0015.94,0038.04,0013.38
2023-09-10 05:08:00,SystemResetWarning,0837.5,5.00,000.00,028.2,024.7,000.0,036.3,029.6,29.4,0001.6,0015.98,0037.90,0013.43
2023-09-10 05:09:00,SystemResetWarning,0837.5,5.01,000.00,028.1,024.7,000.0,036.3,029.4,29.5,0001.8,0015.96,0038.23,0013.44
2023-09-10 05:10:00,SystemResetWarning,0837.5,5.01,000.00,028.0,025.0,000.0,036.4,029.4,29.7,0001.7,0015.93,0039.05,0013.45
2023-09-10 05:11:00,SystemResetWarning,0837.5,5.00,000.00,028.0,025.4,000.0,036.4,029.4,29.8,0001.6,0015.91,0038.55,0013.45
2023-09-10 05:12:00,SystemResetWarning,0837.5,5.00,000.00,028.0,025.7,000.0,036.4,029.5,29.8,0001.5,0015.97,0038.07,0013.46
2023-09-10 05:13:00,SystemResetWarning,0837.5,5.00,000.00,028.0,026.0,000.0,036.4,029.6,29.8,0001.4,0015.99,0038.20,0013.47
2023-09-10 05:14:00,SystemResetWarning,0837.4,5.00,000.00,028.0,026.3,000.0,036.4,029.6,29.8,0001.4,0016.01,0038.10,0013.48
2023-09-10 05:15:00,SystemResetWarning,0837.4,5.00,000.00,028.1,026.6,000.0,036.4,029.7,29.8,0001.4,0016.04,0036.97,0013.50
2023-09-10 05:16:00,SystemResetWarning,0837.4,5.00,000.00,028.1,026.8,000.0,036.5,029.8,29.7,0001.2,0016.11,0037.04,0013.52
2023-09-10 05:17:00,SystemResetWarning,0837.4,5.00,000.00,028.1,027.0,000.0,036.5,029.8,29.6,0001.3,0016.16,0036.51,0013.55
2023-09-10 05:18:00,SystemResetWarning,0837.4,4.99,000.00,028.2,027.1,000.0,036.5,029.9,29.6,0001.3,0016.11,0034.91,0013.55
2023-09-10 05:19:00,SystemResetWarning,0837.5,5.01,000.00,028.2,027.2,000.0,036.5,029.9,29.5,0001.3,0016.03,0033.86,0013.54
2023-09-10 05:20:00,SystemResetWarning,0837.5,5.00,000.00,028.3,027.3,000.0,036.6,030.0,29.4,0001.3,0016.09,0033.47,0013.55
2023-09-10 05:21:00,SystemResetWarning,0837.5,4.99,000.00,028.3,027.4,000.0,036.6,030.0,29.3,0001.3,0016.08,0031.68,0013.56
2023-09-10 05:22:00,SystemResetWarning,0837.5,4.98,000.00,028.3,026.7,000.0,036.6,029.9,29.2,0001.2,0016.13,0031.62,0013.57
2023-09-10 05:23:00,SystemResetWarning,0837.4,5.01,000.00,028.3,025.1,000.0,036.5,029.6,29.3,0001.3,0016.10,0031.32,0013.59
2023-09-10 05:24:00,SystemResetWarning,0837.3,5.01,000.00,028.2,024.7,000.0,036.4,029.6,29.4,0001.4,0016.09,0030.77,0013.60
2023-09-10 05:25:00,SystemResetWarning,0837.2,5.00,000.00,028.1,024.9,000.0,036.4,029.5,29.5,0001.3,0016.08,0029.79,0013.59
2023-09-10 05:26:00,SystemResetWarning,0837.2,4.99,000.00,028.1,025.3,000.0,036.4,029.5,29.7,0001.2,0016.04,0029.11,0013.58
2023-09-10 05:27:00,SystemResetWarning,0837.2,5.00,000.00,028.1,025.6,000.0,036.5,029.5,29.7,0001.3,0016.03,0029.30,0013.58
2023-09-10 05:28:00,SystemResetWarning,0837.2,5.01,000.00,028.1,026.0,000.0,036.5,029.6,29.7,0001.3,0016.07,0029.96,0013.61
2023-09-10 05:29:00,SystemResetWarning,0837.2,5.01,000.00,028.1,026.3,000.0,036.5,029.7,29.7,0001.1,0016.09,0029.91,0013.61
2023-09-10 05:30:00,SystemResetWarning,0837.2,5.01,000.00,028.1,026.5,000.0,036.5,029.7,29.7,0001.1,0016.07,0030.53,0013.61
2023-09-10 05:31:00,SystemResetWarning,0837.2,5.00,000.00,028.2,026.7,000.0,036.5,029.8,29.7,0001.1,0016.07,0031.12,0013.62
2023-09-10 05:32:00,SystemResetWarning,0837.2,5.00,000.00,028.2,026.9,000.0,036.5,029.8,29.5,0001.1,0016.09,0031.56,0013.63
2023-09-10 05:33:00,SystemResetWarning,0837.3,5.00,000.00,028.2,027.1,000.0,036.6,029.9,29.4,0001.2,0016.08,0032.25,0013.67
2023-09-10 05:34:00,SystemResetWarning,0837.2,5.00,000.00,028.3,027.2,000.0,036.6,029.9,29.2,0001.2,0016.13,0033.00,0013.70
2023-09-10 05:35:00,SystemResetWarning,0837.2,4.99,000.00,028.3,027.3,000.0,036.6,030.0,29.1,0001.1,0016.22,0034.12,0013.73
2023-09-10 05:36:00,SystemResetWarning,0837.2,4.99,000.00,028.3,027.4,000.0,036.6,030.0,29.0,0001.1,0016.24,0035.31,0013.79
2023-09-10 05:37:00,SystemResetWarning,0837.2,4.99,000.00,028.4,026.5,000.0,036.6,029.9,28.7,0001.1,0016.29,0036.22,0013.82
2023-09-10 05:38:00,SystemResetWarning,0837.2,5.01,000.00,028.3,025.0,000.0,036.5,029.7,28.8,0001.1,0016.29,0036.50,0013.86
2023-09-10 05:39:00,SystemResetWarning,0837.2,5.00,000.00,028.2,024.7,000.0,036.4,029.6,28.9,0001.2,0016.29,0036.56,0013.90
2023-09-10 05:40:00,SystemResetWarning,0837.2,5.01,000.00,028.1,024.9,000.0,036.5,029.5,29.2,0001.5,0016.39,0036.76,0013.94
2023-09-10 05:41:00,SystemResetWarning,0837.2,5.01,000.00,028.1,025.2,000.0,036.5,029.4,29.3,0001.5,0016.54,0036.71,0013.99
2023-09-10 05:42:00,SystemResetWarning,0837.2,4.99,000.00,028.1,025.6,000.0,036.5,029.5,29.4,0001.4,0016.65,0036.20,0014.07
2023-09-10 05:43:00,SystemResetWarning,0837.2,5.00,000.00,028.1,025.9,000.0,036.5,029.6,29.4,0001.4,0016.72,0036.99,0014.16
2023-09-10 05:44:00,SystemResetWarning,0837.2,5.00,000.00,028.1,026.2,000.0,036.5,029.6,29.4,0001.4,0016.82,0036.13,0014.23
2023-09-10 05:45:00,SystemResetWarning,0837.2,5.01,000.00,028.1,026.4,000.0,036.5,029.7,29.3,0001.2,0016.90,0037.09,0014.30
2023-09-10 05:46:00,SystemResetWarning,0837.2,5.01,000.00,028.1,026.6,000.0,036.5,029.7,29.2,0001.2,0016.95,0037.20,0014.40
2023-09-10 05:47:00,SystemResetWarning,0837.2,5.00,000.00,028.2,026.8,000.0,036.5,029.8,29.3,0001.2,0016.94,0036.41,0014.48
2023-09-10 05:48:00,SystemResetWarning,0837.2,5.00,000.00,028.2,027.0,000.0,036.6,029.8,29.2,0001.4,0017.09,0035.94,0014.56
2023-09-10 05:49:00,SystemResetWarning,0837.2,5.00,000.00,028.2,027.1,000.0,036.6,029.9,29.1,0001.5,0017.17,0035.28,0014.62
2023-09-10 05:50:00,SystemResetWarning,0837.2,5.00,000.00,028.3,027.2,000.0,036.6,030.0,29.1,0001.4,0017.22,0035.34,0014.70
2023-09-10 05:51:00,SystemResetWarning,0837.2,5.00,000.00,028.3,027.3,000.0,036.6,030.0,29.1,0001.1,0017.24,0035.25,0014.76
2023-09-10 05:52:00,SystemResetWarning,0837.2,5.00,000.00,028.3,027.1,000.0,036.6,030.0,29.1,0001.0,0017.26,0035.19,0014.81
2023-09-10 05:53:00,SystemResetWarning,0837.2,4.98,000.00,028.3,025.5,000.0,036.6,029.7,29.1,0001.0,0017.25,0036.45,0014.82
2023-09-10 05:54:00,SystemResetWarning,0837.2,5.00,000.00,028.2,024.6,000.0,036.5,029.6,29.2,0001.2,0017.18,0035.63,0014.80
2023-09-10 05:55:00,SystemResetWarning,0837.2,5.01,000.00,028.2,024.7,000.0,036.5,029.5,29.5,0001.2,0017.17,0035.77,0014.78
2023-09-10 05:56:00,SystemResetWarning,0837.2,5.01,000.00,028.1,025.0,000.0,036.5,029.4,29.6,0001.3,0017.15,0035.09,0014.75
2023-09-10 05:57:00,SystemResetWarning,0837.2,4.99,000.00,028.1,025.3,000.0,036.5,029.4,29.8,0001.3,0017.13,0033.78,0014.67
2023-09-10 05:58:00,SystemResetWarning,0837.2,5.00,000.00,028.0,025.7,000.0,036.5,029.5,29.8,0001.5,0017.15,0033.73,0014.62
2023-09-10 05:59:00,SystemResetWarning,0837.2,5.01,000.00,028.1,026.0,000.0,036.5,029.6,29.8,0001.4,0017.10,0033.28,0014.57
